Location: Dunn (historical)
(35.2693°N, 90.5721°W)
Time: 02:37:53
(UTC+00:00)

Cosmos 2173 Rocket - Pass Details

Date: 13 February 2026
Orbit: 943 x 1000 km, 83.0° (Epoch: 6 March)

Event Time Altitude Azimuth Distance (km) Brightness Sun altitude
Rises 12:08:11 0° 184° (S) 3,694 7.1 -9.3°
Reaches altitude 10° 12:10:41 10° 184° (S) 2,753 6.4 -8.8°
Maximum altitude 12:17:02 90° 238° (WSW) 1,004 4.1 -7.5°
Drops below altitude 10° 12:23:26 10° 6° (N) 2,773 6.3 -6.2°
Sets 12:25:58 0° 7° (N) 3,723 7.0 -5.7°
